| time (UTC) | temp C | wind direction | speed KPH | gust KPH | rain 1hr cm | rain 24hr cm | rain mn cm | humidity % | barometer mb |
| 20260502123015 | 0 | 211 | 0.0 | 0.0 | 0.00 | 0.00 | 0.00 | 63 | 1017.5 |
| 20260502121514 | 1 | 71 | 0.0 | 0.0 | 0.00 | 0.00 | 0.00 | 63 | 1017.4 |
| 20260502114511 | 1 | 71 | 0.0 | 0.0 | 0.00 | 0.00 | 0.00 | 65 | 1017.6 |
| 20260502113009 | 1 | 71 | 0.0 | 0.0 | 0.00 | 0.00 | 0.00 | 62 | 1017.5 |
| 20260502111507 | 2 | 71 | 0.0 | 0.0 | 0.00 | 0.00 | 0.00 | 61 | 1017.5 |
| 20260502110007 | 1 | 71 | 0.0 | 0.0 | 0.00 | 0.00 | 0.00 | 63 | 1017.5 |
| 20260502104503 | 2 | 71 | 0.0 | 0.0 | 0.00 | 0.00 | 0.00 | 60 | 1017.5 |
| 20260502103003 | 2 | 71 | 0.0 | 0.0 | 0.00 | 0.00 | 0.00 | 59 | 1017.5 |
| 20260502101502 | 2 | 71 | 0.0 | 0.0 | 0.00 | 0.00 | 0.00 | 61 | 1017.5 |
| 20260502070046 | 4 | 45 | 0.0 | 0.0 | 0.00 | 0.00 | 0.00 | 51 | 1017.6 |
| 20260502064542 | 5 | 22 | 0.0 | 9.7 | 0.00 | 0.00 | 0.00 | 48 | 1017.4 |
| 20260502063029 | 5 | 20 | 0.0 | 8.0 | 0.00 | 0.00 | 0.00 | 48 | 1017.4 |
| 20260502061527 | 5 | 221 | 0.0 | 0.0 | 0.00 | 0.00 | 0.00 | 48 | 1017.2 |
| 20260502060023 | 5 | 90 | 0.0 | 0.0 | 0.00 | 0.00 | 0.00 | 49 | 1017.1 |
| 20260502054523 | 6 | 88 | 0.0 | 0.0 | 0.00 | 0.00 | 0.00 | 47 | 1017.2 |
| 20260502053020 | 6 | 239 | 0.0 | 0.0 | 0.00 | 0.00 | 0.00 | 49 | 1017.2 |
| 20260502051520 | 5 | 243 | 0.0 | 0.0 | 0.00 | 0.00 | 0.00 | 49 | 1017.0 |
| 20260502050019 | 7 | 243 | 0.0 | 4.8 | 0.00 | 0.00 | 0.00 | 44 | 1017.1 |
| 20260502044519 | 8 | 360 | 0.0 | 1.6 | 0.00 | 0.00 | 0.00 | 36 | 1017.1 |
| 20260502043055 | 8 | 82 | 0.0 | 11.3 | 0.00 | 0.00 | 0.00 | 35 | 1016.8 |
| 20260502041551 | 9 | 89 | 0.0 | 1.6 | 0.00 | 0.00 | 0.00 | 34 | 1016.6 |
| 20260502040045 | 9 | 82 | 0.0 | 29.0 | 0.00 | 0.00 | 0.00 | 34 | 1016.4 |
| 20260502034545 | 10 | 106 | 4.8 | 25.7 | 0.00 | 0.00 | 0.00 | 33 | 1016.1 |
| 20260502033045 | 10 | 128 | 9.7 | 25.7 | 0.00 | 0.00 | 0.00 | 32 | 1015.8 |
| 20260502031543 | 10 | 109 | 6.4 | 24.1 | 0.00 | 0.00 | 0.00 | 32 | 1015.6 |
| 20260502030013 | 10 | 109 | 9.7 | 22.5 | 0.00 | 0.00 | 0.00 | 32 | 1015.4 |
| 20260502024516 | 11 | 78 | 0.0 | 11.3 | 0.00 | 0.00 | 0.00 | 30 | 1015.2 |
| 20260502023009 | 12 | 125 | 0.0 | 6.4 | 0.00 | 0.00 | 0.00 | 27 | 1015.2 |
| 20260502021509 | 14 | 67 | 0.0 | 3.2 | 0.00 | 0.00 | 0.00 | 26 | 1015.1 |
| 20260502020008 | 15 | 36 | 0.0 | 0.0 | 0.00 | 0.00 | 0.00 | 25 | 1015.2 |
| 20260502014527 | 15 | 11 | 0.0 | 0.0 | 0.00 | 0.00 | 0.00 | 26 | 1015.1 |
| 20260502013005 | 15 | 344 | 0.0 | 0.0 | 0.00 | 0.00 | 0.00 | 23 | 1015.1 |
| 20260502011504 | 16 | 336 | 0.0 | 0.0 | 0.00 | 0.00 | 0.00 | 23 | 1015.2 |
| 20260502010007 | 16 | 355 | 0.0 | 0.0 | 0.00 | 0.00 | 0.00 | 22 | 1015.3 |
| 20260502004503 | 16 | 5 | 0.0 | 6.4 | 0.00 | 0.00 | 0.00 | 22 | 1015.4 |
| 20260502003058 | 16 | 360 | 0.0 | 14.5 | 0.00 | 0.00 | 0.00 | 22 | 1015.4 |
| 20260502001557 | 16 | 5 | 0.0 | 1.6 | 0.00 | 0.00 | 0.00 | 20 | 1015.4 |
| 20260502000106 | 17 | 5 | 0.0 | 0.0 | 0.00 | 0.00 | 0.00 | 20 | 1015.4 |
| 20260501234554 | 17 | 351 | 0.0 | 4.8 | 0.00 | 0.00 | 0.00 | 18 | 1015.6 |
| 20260501233052 | 17 | 293 | 0.0 | 6.4 | 0.00 | 0.00 | 0.00 | 17 | 1015.6 |
| 20260501231551 | 17 | 355 | 1.6 | 16.1 | 0.00 | 0.00 | 0.00 | 18 | 1015.8 |
| 20260501230048 | 17 | 321 | 0.0 | 12.9 | 0.00 | 0.00 | 0.00 | 17 | 1016.0 |
| 20260501224546 | 17 | 306 | 0.0 | 0.0 | 0.00 | 0.00 | 0.00 | 17 | 1016.0 |
| 20260501223013 | 18 | 325 | 0.0 | 1.6 | 0.00 | 0.00 | 0.00 | 20 | 1016.1 |
| 20260501221518 | 17 | 348 | 0.0 | 6.4 | 0.00 | 0.00 | 0.00 | 20 | 1016.2 |
| 20260501220012 | 17 | 13 | 0.0 | 8.0 | 0.00 | 0.00 | 0.00 | 22 | 1016.3 |
| 20260501214509 | 17 | 296 | 0.0 | 4.8 | 0.00 | 0.00 | 0.00 | 18 | 1016.5 |
| 20260501213002 | 16 | 285 | 1.6 | 9.7 | 0.00 | 0.00 | 0.00 | 18 | 1016.7 |
| 20260501211600 | 16 | 281 | 0.0 | 0.0 | 0.00 | 0.00 | 0.00 | 22 | 1016.8 |
| 20260501210055 | 16 | 324 | 0.0 | 0.0 | 0.00 | 0.00 | 0.00 | 24 | 1017.0 |
| 20260501204554 | 16 | 350 | 0.0 | 6.4 | 0.00 | 0.00 | 0.00 | 26 | 1017.1 |
| 20260501203053 | 15 | 298 | 0.0 | 12.9 | 0.00 | 0.00 | 0.00 | 26 | 1017.3 |
| 20260501201606 | 15 | 309 | 0.0 | 12.9 | 0.00 | 0.00 | 0.00 | 26 | 1017.4 |
| 20260501200046 | 15 | 5 | 0.0 | 0.0 | 0.00 | 0.00 | 0.00 | 29 | 1017.5 |
| 20260501194546 | 14 | 355 | 0.0 | 0.0 | 0.00 | 0.00 | 0.00 | 29 | 1017.8 |
| 20260501193040 | 14 | 277 | 0.0 | 1.6 | 0.00 | 0.00 | 0.00 | 32 | 1017.9 |
| 20260501191538 | 13 | 350 | 0.0 | 0.0 | 0.00 | 0.00 | 0.00 | 34 | 1018.1 |
| 20260501190035 | 13 | 253 | 0.0 | 0.0 | 0.00 | 0.00 | 0.00 | 35 | 1018.2 |
| 20260501184531 | 13 | 319 | 0.0 | 0.0 | 0.00 | 0.00 | 0.00 | 35 | 1018.5 |
| 20260501183043 | 13 | 291 | 0.0 | 6.4 | 0.00 | 0.00 | 0.00 | 34 | 1018.6 |
| 20260501181537 | 13 | 17 | 0.0 | 1.6 | 0.00 | 0.00 | 0.00 | 34 | 1018.8 |
| 20260501180034 | 13 | 276 | 0.0 | 1.6 | 0.00 | 0.00 | 0.00 | 35 | 1018.9 |
| 20260501174537 | 12 | 5 | 0.0 | 8.0 | 0.00 | 0.00 | 0.00 | 34 | 1019.3 |
| 20260501173025 | 13 | 332 | 0.0 | 3.2 | 0.00 | 0.00 | 0.00 | 33 | 1019.3 |
| 20260501171523 | 12 | 18 | 0.0 | 1.6 | 0.00 | 0.00 | 0.00 | 37 | 1019.4 |
| 20260501170020 | 12 | 360 | 0.0 | 0.0 | 0.00 | 0.00 | 0.00 | 37 | 1019.6 |
| 20260501164522 | 11 | 355 | 0.0 | 9.7 | 0.00 | 0.00 | 0.00 | 42 | 1019.7 |
| 20260501163017 | 12 | 10 | 0.0 | 4.8 | 0.00 | 0.00 | 0.00 | 41 | 1019.7 |
| 20260501161515 | 11 | 344 | 0.0 | 8.0 | 0.00 | 0.00 | 0.00 | 42 | 1019.8 |
| 20260501160017 | 11 | 26 | 0.0 | 0.0 | 0.00 | 0.00 | 0.00 | 43 | 1020.0 |
| 20260501154510 | 10 | 355 | 0.0 | 9.7 | 0.00 | 0.00 | 0.00 | 47 | 1020.1 |
| 20260501153005 | 9 | 31 | 0.0 | 1.6 | 0.00 | 0.00 | 0.00 | 48 | 1020.2 |
| 20260501151501 | 8 | 197 | 0.0 | 0.0 | 0.00 | 0.00 | 0.00 | 48 | 1020.3 |
| 20260501150058 | 7 | 197 | 0.0 | 0.0 | 0.00 | 0.00 | 0.00 | 54 | 1020.4 |
| 20260501144530 | 3 | 198 | 0.0 | 0.0 | 0.00 | 0.00 | 0.00 | 63 | 1020.6 |
| 20260501143034 | 2 | 198 | 0.0 | 0.0 | 0.00 | 0.00 | 0.00 | 69 | 1020.8 |